Home   Weather   Fairfield City Park   Past weeks
Flag for USA

Past Weather in Fairfield City Park, Alabama, USA — Yesterday and Last 2 Weeks

Now
62 °F

Passing clouds.


Feels Like: 62 °F
Forecast: 64 / 34 °F
Wind: 3 mph from North

Location: Birmingham International Airport

Current Time: Dec 5, 2019 at 11:59:45 am

Latest Report: Dec 5, 2019 at 10:53 am


Visibility: 10 mi

Pressure: 30.18 "Hg

Humidity: 31%

Dew Point: 31 °F

Location of Fairfield City ParkLocation

Past Weather in Fairfield City Park — Graph

°F

Fairfield City Park Temperature Yesterday

Maximum temperature yesterday: 62 °F (at 1:53 pm)
Minimum temperature yesterday: 31 °F (at 6:53 am)
Average temperature yesterday: 45 °F

High & Low Weather Summary for the Past Weeks

 TemperatureHumidityPressure
High74 °F (Nov 30, 11:53 am)97% (Nov 22, 2:53 pm)30.39 "Hg (Nov 22, 2:53 pm)
Low31 °F (Dec 4, 6:53 am)21% (Nov 27, 2:53 pm)29.66 "Hg (Nov 30, 11:53 pm)
Average54 °F65%30.03 "Hg
* Reported Nov 20 10:53 am — Dec 5 10:53 am, Fairfield City Park. Weather by CustomWeather, © 2019

Note: Actual official high and low records may vary slightly from our data, if they occured in-between our weather recording intervals... More about our weather records

Fairfield City Park Weather History for the Previous 24 Hours

Scroll right to see more
 ConditionsComfort  
Time TempWeatherWind HumidityBarometerVisibility
10:53 am
Thu, Dec 5
62 °FPassing clouds.3 mph31%30.18 "Hg10 mi
9:53 am55 °FPassing clouds.No wind47%30.20 "Hg10 mi
8:53 am49 °FPassing clouds.No wind61%30.19 "Hg10 mi
7:53 am42 °FPassing clouds.3 mph79%30.17 "Hg10 mi
6:53 am36 °FPassing clouds.3 mph85%30.15 "Hg10 mi
5:53 am37 °FPassing clouds.No wind82%30.11 "Hg10 mi
4:53 am37 °FPassing clouds.No wind86%30.10 "Hg10 mi
3:53 am37 °FPassing clouds.No wind86%30.10 "Hg10 mi
2:53 am40 °FClear.No wind80%30.09 "Hg10 mi
1:53 am38 °FClear.No wind86%30.07 "Hg10 mi
12:53 am40 °FClear.No wind80%30.06 "Hg10 mi
11:53 pm
Wed, Dec 4
40 °FClear.No wind80%30.06 "Hg10 mi
10:53 pm41 °FClear.No wind76%30.06 "Hg10 mi
9:53 pm41 °FClear.No wind76%30.06 "Hg10 mi
8:53 pm42 °FClear.No wind73%30.05 "Hg10 mi
7:53 pm45 °FClear.No wind68%30.04 "Hg10 mi
6:53 pm47 °FClear.No wind61%30.03 "Hg10 mi
5:53 pm52 °FClear.3 mph49%30.01 "Hg10 mi
4:53 pm57 °FPassing clouds.6 mph39%29.98 "Hg10 mi
3:53 pm60 °FPassing clouds.8 mph35%29.98 "Hg10 mi
2:53 pm62 °FPassing clouds.12 mph32%29.96 "Hg10 mi
1:53 pm62 °FPassing clouds.12 mph34%29.95 "Hg10 mi
12:53 pm61 °FPassing clouds.13 mph34%29.97 "Hg10 mi
11:53 am58 °FSunny.8 mph41%29.99 "Hg10 mi
Weather by CustomWeather, © 2019

See weather overview

Advertising